www.pogodaiklimat.ru

Погода и климат >> Архив погоды >> Антарктида >> Neumayer Station


ПОГОДА в Neumayer Station

  • Прогноз погоды в Neumayer Station
  • Монитор погоды в Neumayer Station
  • Климат города

АРХИВ ПОГОДЫ в Neumayer Station

Время (UTC), дата Ветер
(напр.,м/с)
 
Видим.   Явления Облачность Т
(С)
Тd
(С)
f
(%)
Тe
(С)
Тes
(С)
Комфортность P
(гПа)
Po
(гПа)
Тmin
(С)
Tmax
(С)
R
(мм)
R24
(мм)
S
(см)
15 9.07 Ю 3 2000 м слабый снег 4/3 300 м
[St As trans]
-34.4 -38.4 67 -45 -45 опасность
обморожения
987.9 981.6
18 9.07 В 2 2000 м слабый снег 9/9 1500 м
[St]
-36.1 -40.0 67 -45 -45 опасность
обморожения
988.0 981.7
21 9.07 В 6 2000 м слабый снег 9/9 300 м
[Frnb]
-31.8 -35.3 71 -46 -46 опасность
обморожения
988.2 981.9
00 10.07 В 4 2000 м {снег} 5/5 300 м
[St]
-33.8 -37.6 68 -46 -46 опасность
обморожения
987.7 981.4 -37.9 -30.9
03 10.07 В 8 н/о н/о -30.9 -34.6 70 -46 -46 опасность
обморожения
986.5 980.3
06 10.07 В 7 500 м слабый снег 10/10 300 м
[Frnb]
-29.3 -33.2 69 -43 -43 опасность
обморожения
985.9 979.7
09 10.07 В 10 200 м слабый снег {метель} туман 9/9 300 м
[Frnb]
-28.2 -31.9 70 -44 -44 опасность
обморожения
986.2 980.0
12 10.07 В 9 500 м метель {снег} 3/3 1500 м
[St]
-28.5 -32.4 69 -44 -44 опасность
обморожения
986.4 980.3 -32.9 -27.5
15 10.07 ЮВ 3 10 км {туман} 1/1 1500 м
[Sc Cs]
-28.2 -32.9 64 -38 -38 опасность
обморожения
987.7 981.6
18 10.07 Ю 5 2000 м {туман, метель} ясно -36.7 -41.1 64 -51 -51 опасность
обморожения
988.4 982.0
21 10.07 ЮЗ 4 2000 м 8/0
[Cs]
-39.6 -44.0 63 -53 -53 опасность
обморожения
988.4 982.0
00 11.07 Ю 5 2000 м ясно -39.5 -44.7 57 -54 -54 опасность
обморожения
987.8 981.3 -40.4 -27.2
03 11.07 ЮЗ 3 н/о н/о -41.3 -46.5 57 -53 -53 опасность
обморожения
987.2 980.7
06 11.07 Ю 3 2000 м 9/0
[Cs]
-40.7 -46.1 56 -51 -51 опасность
обморожения
986.2 979.8
09 11.07 Ю 7 2000 м 10/0
[Cs]
-38.5 -44.4 54 -55 -55 опасность
обморожения
985.6 979.2
12 11.07 Ю 3 20 км 4/0
[Cs]
-41.3 -46.9 54 -52 -52 опасность
обморожения
985.5 979.0 -41.9 -37.8
15 11.07 ЮВ 3 20 км 1/0
[Cs]
-41.2 -46.6 56 -52 -52 опасность
обморожения
985.4 978.9
18 11.07 В 3 2000 м ясно -41.6 -46.9 56 -54 -54 опасность
обморожения
985.4 978.9
21 11.07 В 4 2000 м 8/0
[Cs]
-39.0 -43.6 62 -52 -52 опасность
обморожения
985.3 978.9
00 12.07 В 11 1000 м метель 10/0
[Ac As]
-30.6 -34.9 66 -48 -48 опасность
обморожения
985.2 979.0 -42.8 -29.3
03 12.07 В 13 н/о н/о -27.3 -31.3 69 -45 -45 опасность
обморожения
985.7 979.5
06 12.07 В 17 <50 м сильная метель 10/0
[Ac As]
-25.7 -29.4 71 -45 -45 опасность
обморожения
984.6 978.5
09 12.07 В 19 50 м сильная метель 10/10 1500 м
[Sc]
-24.9 -28.5 72 -44 -44 опасность
обморожения
984.6 978.6
12 12.07 В 21 50 м слабый снег {метель} туман 10/10 600 м
[Frnb]
-24.6 -28.3 71 -44 -44 опасность
обморожения
984.3 978.3 -32.0 -24.4
15 12.07 В 21 <100 м сильная метель {снег} 10/10 1000 м
[St]
-23.8 -27.5 71 -43 -43 опасность
обморожения
983.3 977.3
18 12.07 В 22 <100 м сильная метель {снег} 10/10 1500 м
[St]
-24.6 -28.3 71 -45 -45 опасность
обморожения
983.1 977.0
21 12.07 В 22 50 м сильная метель 10/5 1500 м
[St As trans]
-23.4 -27.1 72 -43 -43 опасность
обморожения
982.0 976.0
00 13.07 В 22 200 м сильная метель 10/0 2000 м
[As trans]
-23.5 -27.4 70 -43 -43 опасность
обморожения
982.0 976.0 -25.1 -23.4
03 13.07 В 16 н/о н/о -24.5 -28.2 71 -42 -42 опасность
обморожения
981.6 975.5
06 13.07 В 17 200 м сильная метель 10/0 2000 м
[Ac As]
-23.5 -27.6 69 -42 -42 опасность
обморожения
981.6 975.6
09 13.07 В 16 200 м метель туман 10/0
[Ac As]
-21.3 -26.2 65 -38 -38 опасность
обморожения
981.3 975.3
12 13.07 В 20 500 м метель 10/0 2000 м
[Ac As]
-19.4 -25.3 59 -37 -37 опасность
обморожения
980.9 975.0 -24.7 -19.2
15 13.07 В 16 4000 м {метель} 10/0
[Ac As]
-18.1 -24.9 55 -34 -34 опасность
обморожения
981.1 975.3
18 13.07 В 9 2000 м {метель} 10/10 1000 м
[St]
-20.9 -29.1 48 -34 -34 опасность
обморожения
981.5 975.5
21 13.07 В 8 2000 м ясно -23.4 -30.9 50 -37 -37 опасность
обморожения
981.7 975.7
00 14.07 В 5 2000 м ясно -26.4 -33.2 53 -38 -38 опасность
обморожения
982.0 975.9 -26.9 -18.0
03 14.07 В 9 н/о н/о -25.9 -32.7 53 -41 -41 опасность
обморожения
981.7 975.6
06 14.07 В 5 2000 м ясно -28.4 -34.3 57 -41 -41 опасность
обморожения
981.6 975.5
09 14.07 В 7 2000 м 10/10 600 м
[St]
-23.9 -30.2 56 -36 -36 опасность
обморожения
981.7 975.6
12 14.07 В 11 20 км 10/10 300 м
[St]
-22.1 -27.8 60 -37 -37 опасность
обморожения
981.4 975.4 -28.8 -22.0
15 14.07 В 11 4000 м осадки на расстоянии 10/10 600 м
[St]
-21.1 -26.9 59 -36 -36 опасность
обморожения
980.2 974.3
18 14.07 В 17 200 м метель 10/10 1000 м
[St]
-25.0 -28.6 72 -44 -44 опасность
обморожения
979.2 973.2
21 14.07 В 17 200 м метель 10/0
[Cs]
-25.2 -28.9 71 -44 -44 опасность
обморожения
977.1 971.1
00 15.07 В 22 50 м сильная метель 10/0
[Cs]
-25.3 -29.0 71 -46 -46 опасность
обморожения
976.2 970.2 -26.3 -20.7
03 15.07 В 24 н/о н/о -24.4 -28.0 72 -45 -45 опасность
обморожения
973.1 967.1
06 15.07 В 30 н/о н/о -24.1 -27.8 71 -46 -46 опасность
обморожения
971.1 965.2
09 15.07 В 27 <50 м слабый снег {метель} туман ?/? -23.1 -26.7 72 -44 -44 опасность
обморожения
969.4 963.5
12 15.07 В 25 <50 м слабый снег {метель} туман ?/? -23.3 -26.8 73 -44 -44 опасность
обморожения
969.0 963.1 -25.9 -22.6
15 15.07 В 26 <50 м слабый снег {метель} туман ?/? -23.6 -27.2 72 -44 -44 опасность
обморожения
969.0 963.1
18 15.07 В 23 <50 м слабый снег {метель} туман ?/? -23.4 -27.0 72 -43 -43 опасность
обморожения
970.1 964.2
21 15.07 В 22 <50 м слабый снег {метель} туман ?/? -24.0 -27.6 72 -44 -44 опасность
обморожения
973.4 967.5
00 16.07 В 22 <100 м слабый снег {метель} ?/? -24.2 -27.8 72 -44 -44 опасность
обморожения
974.8 968.8 -24.7 -23.2
03 16.07 В 28 н/о н/о -24.0 -27.6 72 -45 -45 опасность
обморожения
974.8 968.8
06 16.07 В 30 н/о н/о -22.9 -26.5 72 -44 -44 опасность
обморожения
971.9 966.0
09 16.07 В 30 <100 м слабый снег {метель} ?/? -21.1 -24.5 74 -42 -42 опасность
обморожения
971.3 965.4

 

Местоположение метеостанции Neumayer Station (Антарктида): широта -70.66 долгота -8.25 высота над уровнем моря 50 м.

В архиве по умолчанию представлена погода в Neumayer Station за последнюю неделю. Архивные данные за месяц целиком и за предыдущие месяцы, начиная с января 2011 года, Вы можете получить, выбрав интересующий диапазон дат из раскрывающегося списка и нажав кнопку "Ввод!".


*Определитесь, кто Вы:
робот инопланетянин человек

Внимание! Время в таблицах - всемирное. Для получения местного времени необходимо прибавить поправку, которая в Neumayer Station равна 0 ч.

Смотрите также архив погоды в соседних городах и на ближайших метеорологических станциях:

Погода в Soerasen (Антарктида) (102 км)
Погода в SANAE (Антарктида) (227 км)
Погода в Nordenskiold Base (Антарктида) (320 км)
Погода в Troll (Антарктида) (406 км)
Погода в Kohnen Ep9 (Антарктида) (552 км)
Погода в Maitri (Антарктида) (732 км)
Погода в Novolazarevskaja (Антарктида) (734 км)
Погода в Halley (Антарктида) (797 км)
Погода в Base Belgrano Ii (Антарктида) (1110 км)
Погода в Limbert Aws (Антарктида) (1666 км)

Пояснения к столбцам:

Ветер - указаны скорость ветра в м/с - средняя за 10 мин, порывы в срок и между сроками (в фигурных скобках) и направление, откуда дует ветер: С - северный, СВ - северо-восточный, В - восточный, ЮВ - юго-восточный, Ю - южный, ЮЗ - юго-западный, З - западный, СЗ - северо-западный.
Видимость - горизонтальная дальность видимости в метрах или километрах. При видимости от 1 до 10 км при отсутствии осадков обычно наблюдается дымка, при ухудшении видимости до 1 км и менее - туман. В сухую погоду видимость может ухудшаться дымом, пылью или мглою.
Явления - указаны атмосферные явления, наблюдавшиеся в срок или в последний час перед сроком; фигурными скобками обозначены явления, наблюдавшиеся между сроками (за 1-3 часа до срока); квадратными скобками обозначены град или гололедные отложения с указанием их диаметра в мм.
Облачность - указаны через наклонную черту общая и нижняя облачность в баллах и высота нижней границы облаков в метрах; квадратными скобками обозначены формы облаков: Ci - перистые, Cs - перисто-слоистые, Cc - перисто-кучевые, Ac - высококучевые, As - высокослоистые, Sc - слоисто-кучевые, Ns - слоисто-дождевые, Cu - кучевые, Cb - кучево-дождевые. Подробнее классификацию облаков см. в Атласе облаков (PDF).
T - Температура воздуха - температура, измеренная на высоте 2 м над землей.
Td - Температура точки росы - температура, при понижении до которой содержащийся в воздухе водяной пар достигнет насыщения.
f - Относительная влажность воздуха - влажноcть воздуха, измеренная на высоте 2 м над землей.
Te - Эффективная температура - температура, которую ощущает одетый по сезону человек в тени. Характеристика душности погоды. При расчете учитывается влияние влажности воздуха и скорости ветра на теплоощущения человека.
Tes - Эффективная температура на солнце - температура, которую ощущает человек, с поправкой на солнечный нагрев. Характеристика знойности погоды. Зависит от высоты солнца над горизонтом, облачности и скорости ветра. Ночью, в пасмурную погоду, а также при ветре 12 м/с и более поправка равна нулю.
P - Атмосферное давление - приведенное к уровню моря атмосферное давление.
Po - Атмосферное давление - измеренное на уровне метеостанции атмосферное давление.
Tmin - Минимальная температура - минимум температуры воздуха на высоте 2 м над землей.
Tmax - Максимальная температура - максимум температуры воздуха на высоте 2 м над землей.
R - Количество осадков - Количество выпавших осадков за период времени, мм. При наведении курсора мыши на число - период времени, за который выпало указанное количество осадков.
R24 - Количество осадков - Количество выпавших осадков за 24 часа, мм.
S - Снежный покров - Высота снежного покрова, см. При наведении курсора мыши на число - состояние снежного покрова и степень покрытия местности в баллах.